User: anonymous   Login
Location: Melbourne
(37.8170°S, 144.9670°E)
Time: 21:07:24
(UTC+10:00)
Language:

ERBS - Orbit

View from above orbital plane
View from above orbital plane
View from above satellite
View from above satellite

Ground track
Ground track

The orbit data is extracted from the following two-line orbital elements,

1 15354U 84108B   17149.67644077 +.00003396 +00000-0 +83102-4 0  9991
2 15354 057.0074 218.0782 0016406 076.1276 284.1603 15.43568328795074
Epoch (UTC): 29 May 2017 16:14:04
Eccentricity: 0.0016406
inclination: 57.0074°
perigee height: 424 km
apogee height: 447 km
right ascension of ascending node: 218.0782°
argument of perigee: 76.1276°
revolutions per day: 15.43568328
mean anomaly at epoch: 284.1603°
orbit number at epoch: 79507

The dashed part of the orbit path shows where the satellite is in the earth's shadow,  

DLR